User: anonymous   Login
Location: Unspecified
(0.0000°N, 0.0000°E)
Time: 05:45:22
(UTC+01:00)
Language:

Cosmos 1943 Rocket - Orbit

View from above orbital plane
View from above orbital plane
View from above satellite
View from above satellite

Ground track
Ground track

The orbit data is extracted from the following two-line orbital elements,

1 19120U 88039B   14304.15344569  .00000031  00000-0  37624-4 0  1958
2 19120 071.0153 193.2737 0023248 224.7342 243.9156 14.19050559370196
Epoch (UTC): 31 October 2014 03:40:57
Eccentricity: 0.0023248
inclination: 71.0153°
perigee height: 812 km
apogee height: 845 km
right ascension of ascending node: 193.2737°
argument of perigee: 224.7342°
revolutions per day: 14.19050559
mean anomaly at epoch: 243.9156°
orbit number at epoch: 37019

The dashed part of the orbit path shows where the satellite is in the earth's shadow,  

DLR